ONEWEB-0569 (55148 NORAD) Tracking and Keplerian Element Data

This shows tracking and keplerian element data for the satellite.

Feedback or suggestion? Click here.




ElementValue
Catalog55148
NameONEWEB-0569
Epoch Orbit70
Epoch Day13.93366972
Epoch Year2023
RAAN284.1324
Inclination86.5115
Eccentricity0.0011241
Argument of Perigee201.6674
Mean Anonmoly158.4079
Mean Motion14.91182985
Decay Rate7.859E-05
L11 55148U 23004J 23013.93366972 .00007859 00000+0 78788-3 0 9995
L22 55148 86.5115 284.1324 0011241 201.6674 158.4079 14.91182985 709



Live tracking and technical data element details for ONEWEB-0569 (NORAD 55148). ONEWEB-0569 can be tracked NOW for your location showing map with azimuth and elevation plus other details from your city location.







IsCatalogInMostPopularTable: catalog: 55148, numindb: 3
Update: records affected: 1



GetName: 55148 ONEWEB-0569

Hit Count: updated at: Tue, 07 Feb 2023 15:55:43 GMT